Location: Eaton Estates
(41.3089°N, 82.0057°W)
Time: 09:47:23
(UTC+00:00)

USA 308 - Pass Details

Date: 29 October 2021
Orbit: 562 x 573 km, 54.0° (Epoch: 26 November)

Event Time Altitude Azimuth Distance (km) Brightness Sun altitude
Exits shadow 09:46:43 25° 6° (N) 1,172 4.5 -24.8°
Drops below altitude 10° 09:49:08 10° 35° (NE) 1,857 6.0 -24.4°
Sets 09:51:36 0° 47° (NE) 2,755 7.1 -23.9°
